[[{"header":{"parameterUnit":"m.s-1","parameterCategory":1,"la1":30.2991,"la2":30.254,"lo1":-89.0895,"lo2":-89.0444,"dy":0.0017,"dx":0.0017,"nx":28,"ny":28,"refTime":"2024-02-13T09:00:00:Z","depth":0,"parameterNumber":2,"parameterNumberName":"U-component_of_WINDS"},"data":[0,0,0,0,0,0,0,0,0,0,0,0,0,0,0,0,0,0,0,0,0,0,0,0,0,0,0,0,0,0,0,0,0,0,0,0,0,0,0,0,0,0,0,0,0,0,0,0,0,0,0,0,0,0,0,0,0,0,-1.8607,-1.8607,0,-1.8554,-1.8554,-1.8553,-1.8458,-1.8456,-1.8454,-1.8452,-1.8399,-1.8399,-1.84,0,0,0,0,0,0,0,0,0,0,0,0,0,-1.8627,-1.8627,-1.8607,-1.8606,-1.8606,-1.8555,-1.8554,-1.8553,-1.8458,-1.8456,-1.8453,-1.8451,-1.8399,-1.8399,-1.84,0,0,0,0,0,0,0,0,0,0,0,0,0,-1.8601,-1.8628,-1.8607,-1.8552,-1.8547,-1.8555,-1.8554,-1.8553,-1.8458,-1.8456,-1.8453,-1.845,-1.8399,-1.8399,-1.84,-1.8458,0,0,-1.8401,-1.8401,0,0,0,0,0,0,0,0,-1.8603,-1.86,-1.8561,-1.8556,-1.855,-1.851,-1.8541,-1.8521,-1.8459,-1.8492,-1.8452,-1.8449,-1.8438,-1.8435,-1.8431,-1.8455,-1.8453,-1.8401,-1.8402,-1.8402,-1.8402,0,0,0,0,0,0,0,-1.8605,-1.8602,-1.8586,-1.856,-1.8554,-1.8531,-1.8524,-1.8537,-1.8481,-1.8489,-1.8482,-1.8477,-1.8435,-1.8431,-1.843,-1.8452,-1.8401,-1.8402,-1.8402,-1.8402,-1.8523,-1.8525,0,0,0,0,0,0,-1.8614,-1.8604,-1.8588,-1.8585,-1.857,-1.8533,-1.8525,-1.8525,-1.8481,-1.8471,-1.8479,-1.8472,-1.8432,-1.8429,-1.8427,-1.8492,-1.8402,-1.8402,-1.8402,-1.852,-1.8523,-1.8526,0,0,0,0,0,0,-1.8615,-1.8614,-1.859,-1.8593,-1.8588,-1.8535,-1.8536,-1.8526,-1.8522,-1.8473,-1.8463,-1.8486,-1.843,-1.8427,-1.8451,-1.8489,-1.8402,-1.8403,-1.8516,-1.8521,-1.8525,-1.8624,0,0,0,0,0,0,-1.8616,-1.8615,-1.8635,-1.8594,-1.8588,-1.8614,-1.8539,-1.8527,-1.8523,-1.8514,-1.8477,-1.8468,-1.8427,-1.8451,-1.8452,-1.8488,-1.8403,-1.8512,-1.8518,-1.8523,-1.8617,-1.8631,-1.8643,0,0,0,0,0,-1.8617,-1.8665,-1.8637,-1.8635,-1.8613,-1.8617,-1.8613,-1.8565,-1.8527,-1.8547,-1.8517,-1.8469,-1.8486,-1.8454,-1.8454,-1.8492,-1.851,-1.8517,-1.8523,-1.8611,-1.8628,-1.8643,0,0,0,0,0,0,-1.8712,-1.8659,-1.8627,-1.8663,-1.8645,-1.8601,-1.8625,-1.8585,-1.8578,-1.8569,-1.851,-1.8503,-1.8535,-1.8516,-1.8482,-1.8546,-1.849,-1.8497,-1.8557,-1.8573,-1.8586,-1.859,-1.8403,0,0,0,0,0,-1.8738,-1.8745,-1.8698,-1.8734,-1.8727,-1.8678,-1.8678,-1.8642,-1.8622,-1.8614,-1.8584,-1.8567,-1.8568,-1.857,-1.8568,-1.8614,-1.8605,-1.864,-1.8653,-1.8664,-1.8671,-1.8695,-1.871,-1.8548,-1.8548,-1.8548,0,0,-1.879,-1.8761,-1.8769,-1.8753,-1.8735,-1.8744,-1.8672,-1.8685,-1.8691,-1.8616,-1.8637,-1.8615,-1.8592,-1.8628,-1.8642,-1.8613,-1.8714,-1.8673,-1.8682,-1.8682,-1.8703,-1.8718,-1.8732,-1.8552,-1.8552,-1.8551,0,0,-1.8889,-1.8869,-1.8897,-1.8881,-1.8855,-1.8822,-1.883,-1.8792,-1.8774,-1.8795,-1.8739,-1.8746,-1.8749,-1.8735,-1.8728,-1.8825,-1.8782,-1.8827,-1.8895,-1.8919,-1.8932,-1.8943,-1.8977,-1.8991,-1.8833,-1.8834,-1.8834,0,-1.8957,-1.8968,-1.8916,-1.8933,-1.8928,-1.886,-1.8889,-1.8876,-1.8852,-1.885,-1.8818,-1.8821,-1.88,-1.8832,-1.8856,-1.8853,-1.886,-1.883,-1.8934,-1.8944,-1.8954,-1.8986,-1.9,-1.8839,-1.8838,-1.8838,-1.8837,0,-1.9053,-1.9062,-1.9088,-1.9066,-1.9064,-1.9087,-1.9039,-1.9044,-1.9009,-1.8981,-1.9003,-1.8977,-1.8969,-1.8974,-1.8941,-1.9002,-1.8985,-1.8945,-1.8887,-1.8976,-1.9005,-1.9017,-1.8847,-1.8845,-1.8843,-1.8842,0,0,-1.9209,-1.9159,-1.917,-1.9159,-1.9127,-1.9133,-1.9154,-1.9146,-1.9151,-1.9138,-1.9154,-1.9159,-1.9122,-1.9114,-1.9079,-1.91,-1.9179,-1.9057,-1.9055,-1.908,-1.9247,-1.9277,-1.9292,-1.9151,-1.9153,-1.9155,-1.9248,0,-1.9301,-1.9332,-1.9287,-1.9329,-1.9337,-1.9274,-1.9292,-1.9275,-1.925,-1.9254,-1.9226,-1.9231,-1.9181,-1.9176,-1.9195,-1.9166,-1.9212,-1.9159,-1.9166,-1.9167,-1.9173,-1.9307,-1.9338,-1.9428,-1.926,-1.9262,-1.9263,0,-1.9411,-1.9403,-1.9446,-1.9412,-1.9414,-1.9431,-1.9421,-1.9425,-1.9405,-1.9385,-1.9379,-1.9337,-1.9356,-1.9302,-1.9327,-1.9292,-1.9293,-1.928,-1.9282,-1.928,-1.9219,-1.9308,-1.9455,-1.9468,-1.9281,-1.9279,-1.9278,0,-1.952,-1.952,-1.9545,-1.9539,-1.95,-1.9514,-1.9498,-1.9476,-1.9475,-1.9467,-1.9466,-1.9461,-1.9457,-1.9455,-1.9413,-1.9378,-1.9445,-1.9387,-1.9429,-1.943,-1.9444,-1.9444,-1.9593,-1.9447,-1.9447,-1.9447,-1.9446,0,-1.9627,-1.9655,-1.9594,-1.961,-1.964,-1.959,-1.9622,-1.96,-1.9581,-1.9592,-1.9539,-1.955,-1.9495,-1.9502,-1.947,-1.9496,-1.9495,-1.948,-1.9471,-1.9485,-1.9487,-1.9483,-1.9476,-1.945,-1.9449,-1.9449,-1.9448,0,-1.9753,-1.9713,-1.9737,-1.9699,-1.969,-1.9715,-1.9683,-1.9696,-1.9668,-1.9683,-1.9684,-1.964,-1.9645,-1.9604,-1.9601,-1.958,-1.9622,-1.9602,-1.9628,-1.9622,-1.9666,-1.9663,-1.9817,-1.9835,-1.9679,-1.9681,-1.9682,0,-1.9823,-1.9843,-1.9808,-1.9812,-1.9799,-1.9806,-1.9804,-1.9756,-1.9757,-1.9738,-1.9754,-1.9755,-1.9752,-1.9763,-1.9732,-1.973,-1.971,-1.9764,-1.9709,-1.9722,-1.971,-1.9709,-1.9711,-1.9775,-1.9777,-1.9779,-1.978,0,-1.9951,-1.9931,-1.9931,-1.9925,-1.9925,-1.9918,-1.9908,-1.9914,-1.9862,-1.9866,-1.9871,-1.9869,-1.9867,-1.9868,-1.9861,-1.9846,-1.9805,-1.9798,-1.9808,-1.9821,-1.9835,-1.9828,-1.9659,-1.9794,-1.9793,-1.9792,-1.9791,-1.9791,-2.0051,-2.0067,-2.0045,-2.0047,-2.0034,-2.0026,-2.0037,-2.0012,-2.0014,-2.0008,-1.998,-1.999,-1.9971,-1.9957,-1.9946,-1.9954,-1.9927,-1.9942,-1.9945,-1.9949,-1.9957,-1.9835,-1.9952,-1.9952,-1.9952,-1.9951,-1.9951,0,-2.0176,-2.016,-2.0162,-2.015,-2.0152,-2.0114,-2.0101,-2.0106,-2.0115,-2.0101,-2.01,-2.0106,-2.0108,-2.0078,-2.0076,-2.0088,-2.007,-2.0089,-2.0087,-2.0085,-1.9981,-1.9972,-2.0105,-2.0104,-2.0104,-2.0104,-2.0104,-2.0104,-2.0242,-2.0266,-2.0244,-2.0263,-2.0246,-2.0255,-2.0251,-2.0243,-2.0232,-2.0241,-2.0242,-2.0223,-2.0203,-2.0199,-2.02,-2.0191,-2.0193,-2.0219,-2.0204,-2.0107,-2.0092,-2.0078,-2.0069,-2.022,-2.022,-2.0307,-2.0308,-2.0309]},{"header":{"parameterUnit":"m.s-1","parameterCategory":1,"la1":30.2991,"la2":30.254,"lo1":-89.0895,"lo2":-89.0444,"dy":0.0017,"dx":0.0017,"nx":28,"ny":28,"refTime":"2024-02-13T09:00:00:Z","depth":0,"parameterNumber":3,"parameterNumberName":"V-component_of_WINDS"},"data":[0,0,0,0,0,0,0,0,0,0,0,0,0,0,0,0,0,0,0,0,0,0,0,0,0,0,0,0,0,0,0,0,0,0,0,0,0,0,0,0,0,0,0,0,0,0,0,0,0,0,0,0,0,0,0,0,0,0,0.9971,0.9972,0,0.9993,0.9993,0.9993,1.0039,1.004,1.004,1.0041,1.0061,1.006,1.006,0,0,0,0,0,0,0,0,0,0,0,0,0,0.9968,0.9968,0.9971,0.9972,0.9972,0.9993,0.9993,0.9993,1.0038,1.004,1.0041,1.0042,1.0061,1.0061,1.006,0,0,0,0,0,0,0,0,0,0,0,0,0,0.9977,0.9968,0.9971,0.9997,1.0,0.9993,0.9993,0.9993,1.0038,1.004,1.0041,1.0042,1.0061,1.0061,1.006,1.0029,0,0,1.0058,1.0058,0,0,0,0,0,0,0,0,0.9977,0.9977,0.9993,0.9995,0.9998,1.0015,0.9999,1.0005,1.0038,1.0023,1.0041,1.0043,1.0044,1.0045,1.0046,1.003,1.0031,1.0058,1.0058,1.0058,1.0058,0,0,0,0,0,0,0,0.9976,0.9977,0.998,0.9993,0.9996,1.0007,1.001,1.0,1.0026,1.0025,1.0028,1.003,1.0046,1.0046,1.0047,1.0031,1.0058,1.0058,1.0058,1.0057,0.999,0.9989,0,0,0,0,0,0,0.9972,0.9976,0.9979,0.998,0.9991,1.0006,1.0009,1.0008,1.0026,1.003,1.0029,1.0032,1.0047,1.0047,1.0048,1.0012,1.0058,1.0057,1.0057,0.9992,0.999,0.9988,0,0,0,0,0,0,0.9972,0.9972,0.9978,0.9979,0.9981,1.0004,1.0003,1.0007,1.0008,1.0029,1.0034,1.0025,1.0048,1.0048,1.0033,1.0014,1.0057,1.0057,0.9994,0.9991,0.9989,0.9941,0,0,0,0,0,0,0.9972,0.9972,0.996,0.9979,0.9981,0.9964,1.0001,1.0007,1.0007,1.0012,1.0027,1.003,1.0049,1.0034,1.0033,1.0014,1.0056,0.9995,0.9993,0.999,0.9945,0.9938,0.9932,0,0,0,0,0,0.9971,0.9946,0.996,0.996,0.9967,0.9963,0.9964,0.9986,1.0006,0.9994,1.0008,1.003,1.0016,1.0032,1.0031,1.0011,0.9997,0.9993,0.999,0.9947,0.9939,0.9932,0,0,0,0,0,0,0.9924,0.9949,0.9964,0.9944,0.9951,0.9971,0.9957,0.9977,0.9978,0.9982,1.0009,1.0012,0.9993,1.0001,1.0018,0.9982,1.001,1.0006,0.9978,0.997,0.9963,0.9962,1.0056,0,0,0,0,0,0.9911,0.9906,0.9928,0.9908,0.9911,0.9933,0.9932,0.9949,0.9957,0.996,0.9972,0.9979,0.9976,0.9973,0.9972,0.9946,0.995,0.9932,0.9926,0.992,0.9916,0.9903,0.9895,0.9978,0.9978,0.9978,0,0,0.9884,0.9897,0.9893,0.9899,0.9906,0.99,0.9935,0.9927,0.9922,0.9959,0.9945,0.9954,0.9964,0.9943,0.9934,0.9949,0.9895,0.9916,0.9911,0.9911,0.9899,0.9891,0.9884,0.9975,0.9976,0.9976,0,0,0.9833,0.9842,0.9827,0.9834,0.9845,0.986,0.9856,0.9873,0.988,0.9868,0.9895,0.9889,0.9884,0.9889,0.9891,0.9841,0.9861,0.984,0.9805,0.9792,0.9785,0.978,0.9761,0.9754,0.9836,0.9836,0.9836,0,0.9798,0.979,0.9816,0.9806,0.9807,0.9841,0.9824,0.983,0.9839,0.9839,0.9856,0.9849,0.9858,0.9839,0.9827,0.9827,0.9823,0.9838,0.9784,0.9779,0.9774,0.9757,0.975,0.9833,0.9834,0.9834,0.9834,0,0.9747,0.9741,0.9727,0.9736,0.9736,0.9723,0.9746,0.9743,0.9759,0.9772,0.9759,0.977,0.9771,0.9768,0.9784,0.9751,0.976,0.978,0.9808,0.9763,0.9747,0.9741,0.983,0.9831,0.9831,0.9832,0,0,0.9665,0.9689,0.9683,0.9688,0.9703,0.9698,0.9686,0.9689,0.9685,0.9691,0.9681,0.9676,0.9694,0.9696,0.9713,0.9701,0.966,0.9723,0.9724,0.971,0.9624,0.9608,0.96,0.9674,0.9673,0.9672,0.9623,0,0.9617,0.9598,0.9621,0.9598,0.9592,0.9624,0.9613,0.9621,0.9633,0.9629,0.9642,0.9638,0.9663,0.9665,0.9655,0.9668,0.9643,0.9672,0.9664,0.9664,0.9661,0.9592,0.9576,0.9529,0.9617,0.9616,0.9615,0,0.9557,0.9561,0.9537,0.9553,0.9551,0.9542,0.9545,0.9542,0.9551,0.956,0.9563,0.9583,0.9572,0.96,0.9584,0.9603,0.9602,0.9607,0.9606,0.9606,0.9636,0.9589,0.9514,0.9507,0.9606,0.9607,0.9607,0,0.9499,0.9498,0.9484,0.9486,0.9505,0.9497,0.9505,0.9515,0.9515,0.9518,0.9518,0.9519,0.9519,0.9519,0.9539,0.9558,0.9521,0.9551,0.9528,0.9527,0.9518,0.9518,0.9441,0.9518,0.9518,0.9518,0.9518,0,0.9442,0.9426,0.9458,0.9449,0.9432,0.9458,0.944,0.945,0.9459,0.9452,0.9479,0.9472,0.9499,0.9494,0.951,0.9494,0.9494,0.9501,0.9505,0.9498,0.9497,0.9497,0.9501,0.9516,0.9517,0.9517,0.9517,0,0.9375,0.9395,0.9381,0.94,0.9405,0.9391,0.9407,0.9399,0.9413,0.9404,0.9403,0.9425,0.9421,0.9441,0.944,0.945,0.9427,0.9437,0.9424,0.9427,0.9402,0.9404,0.9322,0.9312,0.9396,0.9395,0.9394,0,0.9336,0.9325,0.9343,0.934,0.9346,0.9342,0.9342,0.9367,0.9366,0.9375,0.9366,0.9364,0.9364,0.9356,0.9371,0.937,0.938,0.9351,0.938,0.9373,0.9379,0.9379,0.9378,0.9345,0.9344,0.9343,0.9343,0,0.9266,0.9277,0.9276,0.9279,0.9278,0.9281,0.9286,0.9282,0.9309,0.9306,0.9303,0.9303,0.9302,0.93,0.9303,0.9309,0.933,0.9333,0.9328,0.932,0.9313,0.9316,0.9407,0.9335,0.9336,0.9336,0.9337,0.9337,0.9212,0.9203,0.9214,0.9212,0.9219,0.9222,0.9216,0.9229,0.9227,0.9229,0.9244,0.9237,0.9246,0.9252,0.9257,0.9251,0.9265,0.9257,0.9255,0.9253,0.9248,0.9314,0.9252,0.9252,0.9253,0.9253,0.9253,0,0.9143,0.9152,0.915,0.9156,0.9154,0.9175,0.9181,0.9178,0.9172,0.9179,0.9178,0.9174,0.9172,0.9187,0.9187,0.918,0.9189,0.9178,0.9179,0.918,0.9236,0.9241,0.9171,0.9171,0.9171,0.9171,0.9171,0.9171,0.9107,0.9092,0.9104,0.9093,0.9102,0.9097,0.9098,0.9102,0.9108,0.9102,0.91,0.911,0.912,0.9121,0.912,0.9124,0.9122,0.9108,0.9116,0.9168,0.9176,0.9184,0.9188,0.9108,0.9108,0.906,0.906,0.9059]}]]